Hourly Data Report for October 03, 2017

All times are specified in Local Standard Time (LST). Add 1 hour to adjust for Daylight Saving Time where and when it is observed.

FORT PROVIDENCE
NORTHWEST TERRITORIES

61°19'01.000" N
117°36'07.000" W
161.50 m
2201799
71087
WID

Download Data

Hourly Data (October 2017)
Hourly Data Report for October 3, 2017
Temp Definition
°C
Dew Point Temp Definition
°C
Rel Hum Definition
%
Wind Dir Definition
10's deg

Wind Spd Definition
km/h
Visibility Definition
km
Stn Press Definition
kPa
Hmdx Definition


Wind Chill Definition


Weather Definition


TIME
00:00 5.8 -1.9 58 17 7   99.60     LegendNANA
01:00 5.8 -1.6 59 17 6   99.52     LegendNANA
02:00 5.7 -1.6 59 17 6   99.42     LegendNANA
03:00 3.5 -1.5 70 17 6   99.32     LegendNANA
04:00 5.9 -0.7 63 18 8   99.19     LegendNANA
05:00 5.1 -0.3 68 17 4   99.08     LegendNANA
06:00 4.7 -0.3 70 20 5   99.01     LegendNANA
07:00 6.1 -0.4 63 27 9   99.00     LegendNANA
08:00 6.5 -0.6 61 28 7   99.01     LegendNANA
09:00 7.1 1.4 67 29 6   99.08     LegendNANA
10:00 7.8 1.6 65 30 5   99.12     LegendNANA
11:00 9.5 1.6 58 28 8   99.18     LegendNANA
12:00 12.2 1.6 48 30 15   99.22     LegendNANA
13:00 13.1 1.7 46 31 29   99.28     LegendNANA
14:00 13.3 1.3 44 33 26   99.39     LegendNANA
15:00 11.5 1.7 51 34 20   99.55     LegendNANA
16:00 10.1 1.4 55 34 18   99.70     LegendNANA
17:00 8.4 1.3 61 36 16   99.85     LegendNANA
18:00 7.0 0.9 65 36 10   99.92     LegendNANA
19:00 5.5 0.6 71 1 3   100.00     LegendNANA
20:00 3.8 0.2 77 35 5   100.09     LegendNANA
21:00 2.2 -0.6 82 36 3   100.13     LegendNANA
22:00 0.5 -1.2 88 2 4   100.15     LegendNANA
23:00 1.3 -1.1 84 0 1   100.18     LegendNANA

Notes on Data Quality.

Legend

  • E = Estimated
  • M = Missing
  • NA = Not Available
  • ‡ = Partner data that is not subject to review by the National Climate Archives
Date modified: